Regional Weather Roundup
Issued by NWS State College, PA

Home | Current Version | Previous Version | Text Only | Print | Product List | Glossary On
Versions: 1 2 3 4 5 6 7 8 9 10 11 12 13 14 15 16 17 18 19 20 21 22 23 24 25 26 27 28 29 30 31 32 33 34 35 36 37 38 39 40 41 42 43 44 45 46 47 48 49 50
000
ASUS41 KCTP 230510
RWRCTP

REGIONAL WEATHER ROUNDUP
NATIONAL WEATHER SERVICE STATE COLLEGE PA
100 AM EDT TUE SEP 23 2014

Note: "fair" indicates few or no clouds below 12,000 feet with no
significant weather and/or obstructions to visibility.

* = STATION THAT DOES NOT REPORT PRECIPITATION /E.G. RAIN...SNOW...ETC/
    THUNDER OR FOG.

PAZ002>004-007>009-013>016-020>023-029>032-230600-
WESTERN PENNSYLVANIA

CITY           SKY/WX    TMP DP  RH WIND       PRES   REMARKS
ERIE           CLEAR     47  41  80 S7        30.26S
MEADVILLE      CLEAR     45  40  82 SW5       30.27S
FRANKLIN*      CLEAR     43  37  81 W6        30.28S
NEW CASTLE       N/A     40  40 100 CALM      30.30S
BEAVER COUNTY  NOT AVBL
BUTLER*        FAIR      41  37  87 CALM      30.30S
PITTSBURGH INT FAIR      44  41  89 CALM      30.29R
PITTSBURGH     CLEAR     49  40  71 CALM      30.28S
INDIANA*       CLEAR     43  41  93 CALM      30.32R
LATROBE        PTCLDY    45  45 100 CALM      30.30S
WASHINGTON CO* FAIR      37  36  93 CALM      30.30S VSB 1
$$

PAZ004>006-010>012-017>019-024>028-033>037-041-042-045-046-049>053-230600-
CENTRAL PENNSYLVANIA

CITY           SKY/WX    TMP DP  RH WIND       PRES   REMARKS
BRADFORD       CLEAR     43  41  93 W6        30.24R
DUBOIS         CLEAR     42  40  92 W5        30.25S
CLEARFIELD     CLEAR     45  40  82 S5        30.27R
JOHNSTOWN      CLEAR     42  37  82 NW7       30.25F
ALTOONA        CLEAR     42  39  89 CALM      30.27S
STATE COLLEGE  PTCLDY    47  42  84 SW3       30.26R
WILLIAMSPORT   CLEAR     45  40  82 NW6       30.23R
SELINSGROVE    CLEAR     45  42  89 NW3       30.24R
FT INDIANTOWN  CLEAR     49  43  77 NW2       30.24R
CAPITAL CITY   CLEAR     54  41  61 W3        30.24S
HARRISBURG     PTCLDY    55  40  56 NW6       30.24R
YORK           MOCLDY    52  41  66 NW6       30.24R
$$

PAZ038>040-043-044-047-048-054-055-060>062-067>071-230600-
EASTERN PENNSYLVANIA

CITY           SKY/WX    TMP DP  RH WIND       PRES   REMARKS
SCRANTON       CLEAR     47  38  71 CALM      30.22R
MOUNT POCONO   CLEAR     45  36  70 NW7       30.18R
ALLENTOWN      CLEAR     48  38  68 W3        30.22R
QUAKERTOWN*    CLEAR     46  39  76 CALM      30.23R
READING        CLEAR     51  40  65 W5        30.22R
LANCASTER      CLEAR     51  40  65 NW8       30.24R
COATESVILLE    CLEAR     50  41  71 N5        30.23S
POTTSTOWN      CLEAR     50  40  68 CALM      30.24R
BLUE BELL      CLEAR     50  43  76 CALM      30.21S
DOYLESTOWN     CLEAR     50  39  66 NW3       30.21R
WILLOW GROVE   NOT AVBL
NORTH PHILA    PTCLDY    54  40  59 NW7       30.23R
PHILADELPHIA   PTCLDY    57  40  52 NW10      30.22R
$$


USA.gov is the U.S. government's official web portal to all federal, state and local government web resources and services.